SCP
0 0 0 0 0 0 0 0 0 0 0 0 0 0 0 0 0 0 0 0 0 0 0 0 0 0 0 0 0 0 0 0 0 0 0 0 0 0 0 0 0 0 0 0
0 0 0 0 0 0 0 0 0 0 0 0 0 0 0 0 0 0 0 0 0 0 0 0 0 0 0 0 0 0 0 0 0 0 0 0 0 0 0 0 0 0 0 0
0 0 0 0 0 0 0 0 0 0 0 0 0 0 0 0 0 0 0 0 0 0 0 0 0 0 0 0 0 0 0 0 0 0 0 0 0 0 0 0 0 0 0 0
0 0 0 0 0 0 0 0 0 0 0 0 0 0 0 0 0 0 0 0 0 0 0 0 0 0 0 0 0 0 0 0 0 0 0 0 0 0 0 0 0 0 0 0
0 0 0 0 0 0 0 0 0 0 0 0 0 0 0 0 0 0 0 0 0 0 0 0 0 0 0 0 0 0 0 0 0 0 0 0 0 0 0 0 0 0 0 0
0 0 0 0 0 0 0 0 0 0 0 0 0 0 0 0 0 0 0 0 0 0 0 0 0 0 0 0 0 0 0 0 0 0 0 0 0 0 0 0 0 0 0 0
0 0 0 0 0 0 0 0 0 0 0 0 0 0 0 0 0 0 0 0 0 0 0 0 0 0 0 0 0 0 0 0 0 0 0 0 0 0 0 0 0 0 0 0
0 0 0 0 0 0 0 0 0 0 0 0 0 0 0 0 0 0 0 0 0 0 0 0 0 0 0 0 0 0 0 0 0 0 0 0 0 0 0 0 0 0 0 0
0 0 0 0 0 0 0 0 0 0 0 0 0 0 0 0 0 0 0 0 0 0 0 0 0 0 0 0 0 0 0 0 0 0 0 0 0 0 0 0 0 0 0 0
0 0 0 0 0 0 0 0 0 0 0 0 0 0 0 0 0 0 0 0 0 0 0 0 0 0 0 0 0 0 0 0 0 0 0 0 0 0 0 0 0 0 0 0
0 0 0 0 0 0 0 0 0 0 0 0 0 0 0 0 0 0 0 0 0 0 0 0 0 0 0 0 0 0 0 0 0 0 0 0 0 0 0 0 0 0 0 0
0 0 0 0 0 0 0 0 0 0 0 0 0 0 0 0 0 0 0 0 0 0 0 0 0 0 0 0 0 0 0 0 0 0 0 0 0 0 0 0 0 0 0 0
0 0 0 0 0 0 0 0 0 0 0 0 0 0 0 0 0 0 0 0 0 0 0 0 0 0 0 0 0 0 0 0 0 0 0 0 0 0 0 0 0 0 0 0
0 0 0 0 0 0 0 0 0 0 0 0 0 0 0 0 0 0 0 0 0 0 0 0 0 0 0 0 0 0 0 0 0 0 0 0 0 0 0 0 0 0 0 0
0 0 0 0 0 0 0 0 0 0 0 0 0 0 0 0 0 0 0 0 0 0 0 0 0 0 0 0 0 0 0 0 0 0 0 0 0 0 0 0 0 0 0 0
0 0 0 0 0 0 0 0 0 0 0 0 0 0 0 0 0 0 0 0 0 0 0 0 0 0 0 0 0 0 0 0 0 0 0 0 0 0 0 0 0 0 0 0
0 0 0 0 0 0 0 0 0 0 0 0 0 0 0 0 0 0 0 0 0 0 0 0 0 0 0 0 0 0 0 0 0 0 0 0 0 0 0 0 0 0 0 0
0 0 0 0 0 0 0 0 0 0 0 0 0 0 0 0 0 0 0 0 0 0 0 0 0 0 0 0 0 0 0 0 0 0 0 0 0 0 0 0 0 0 0 0
0 0 0 0 0 0 0 0 0 0 0 0 0 0 0 0 0 0 0 0 0 0 0 0 0 0 0 0 0 0 0 0 0 0 0 0 0 0 0 0 0 0 0 0
0 0 0 0 0 0 0 0 0 0 0 0 0 0 0 0 0 0 0 0 0 0 0 0 0 0 0 0 0 0 0 0 0 0 0 0 0 0 0 0 0 0 0 0
0 0 0 0 0 0 0 0 0 0 0 0 0 0 0 0 0 0 0 0 0 0 0 0 0 0 0 0 0 0 0 0 0 0 0 0 0 0 0 0 0 0 0 0
0 0 0 0 0 0 0 0 0 0 0 0 0 0 0 0 0 0 0 0 0 0 0 0 0 0 0 0 0 0 0 0 0 0 0 0 0 0 0 0 0 0 0 0
0 0 0 0 0 0 0 0 0 0 0 0 0 0 0 0 0 0 0 0 0 0 0 0 0 0 0 0 0 0 0 0 0 0 0 0 0 0 0 0 0 0 0 0
0 0 0 0 0 0 0 0 0 0 0 0 0 0 0 0 0 0 0 0 0 0 0 0 0 0 0 0 0 0 0 0 0 0 0 0 0 0 0 0 0 0 0 0
0 0 0 0 0 0 0 0 0 0 0 0 0 0 0 0 0 0 0 0 0 0 0 0 0 0 0 0 0 0 0 0 0 0 0 0 0 0 0 0 0 0 0 0
0 0 0 0 0 0 0 0 0 0 0 0 0 0 0 0 0 0 0 0 0 0 0 0 0 0 0 0 0 0 0 0 0 0 0 0 0 0 0 0 0 0 0 0
0 0 0 0 0 0 0 0 0 0 0 0 0 0 0 0 0 0 0 0 0 0 0 0 0 0 0 0 0 0 0 0 0 0 0 0 0 0 0 0 0 0 0 0
Wind_Speed
10 9 8 8 6 5 6 6 8 10 10 11 12 12 11 11 11 11 10 11 11 10 9 9 9 8 8 9 9 9 10 11 10 9 9 9 9 9 9 9 12 9 9 9
12 9 10 10 6 4 4 6 7 10 9 12 12 11 11 11 10 9 10 12 12 12 11 10 10 9 9 10 9 9 10 11 11 10 10 10 10 10 9 9 9 9 10 10
11 10 11 8 3 2 5 8 9 9 9 11 12 11 11 9 8 10 11 12 12 12 11 9 9 8 9 10 10 10 10 11 11 11 12 11 13 12 11 10 10 10 11 10
11 12 10 3 1 3 3 6 7 7 10 11 11 11 8 10 9 9 11 11 11 11 12 11 10 10 10 12 11 11 11 11 11 12 13 12 12 12 11 10 10 10 11 11
8 10 8 1 2 2 4 6 7 8 10 11 12 12 5 9 9 9 10 10 10 11 12 11 11 11 11 12 12 12 12 12 13 13 14 13 13 12 11 10 10 10 10 10
9 12 13 4 8 4 3 1 8 9 10 10 11 9 8 11 10 10 10 9 10 11 11 10 11 11 12 12 12 12 13 13 13 13 13 14 13 12 10 9 10 10 10 9
10 12 7 8 5 3 6 5 7 9 9 9 7 7 9 10 10 9 10 10 10 10 9 9 10 9 11 12 12 13 13 13 13 13 13 13 11 9 9 9 9 9 10 8
7 8 3 4 4 6 5 4 6 7 7 7 7 8 9 9 9 10 10 11 11 9 9 8 9 9 11 12 12 13 13 14 14 13 13 12 10 10 9 9 9 8 7 7
5 5 2 2 2 2 2 2 4 6 6 6 8 8 9 9 9 9 10 10 10 10 10 9 9 9 11 11 12 13 13 14 13 14 12 11 10 9 8 7 6 6 5 5
5 7 6 5 3 2 1 1 3 4 5 6 7 8 9 8 8 9 10 10 10 11 11 10 10 10 10 11 12 13 13 13 12 12 11 9 7 6 6 6 6 5 5 4
9 7 8 6 4 2 0 1 2 3 4 5 6 7 8 7 8 8 9 9 9 9 10 11 10 10 10 11 12 13 13 12 12 11 9 8 7 5 5 4 3 4 5 5
6 5 5 5 2 2 2 3 3 3 4 5 6 7 7 7 7 8 9 9 9 10 11 11 10 10 10 11 11 12 12 11 9 9 8 7 7 5 3 2 1 1 2 4
5 5 6 4 2 2 3 4 3 3 4 4 4 5 6 6 7 8 9 10 10 10 11 10 10 11 11 11 12 12 12 11 9 9 8 7 7 6 4 1 2 1 2 3
4 3 6 7 7 5 5 5 4 4 4 3 3 4 5 6 7 8 9 9 10 10 11 10 10 11 11 12 12 12 12 11 9 7 7 6 6 6 5 4 2 1 2 1
6 5 7 7 7 6 5 5 6 6 4 3 2 3 5 6 7 8 8 9 9 10 10 10 10 11 11 12 12 12 11 8 8 8 7 6 6 5 4 4 3 1 2 3
8 8 7 7 7 7 7 7 7 6 5 3 2 3 4 6 6 7 8 8 9 10 10 9 10 11 11 11 12 10 8 11 10 8 7 6 5 5 4 4 3 2 1 1
8 8 8 8 8 8 8 8 6 5 4 2 1 2 4 5 6 7 8 8 8 9 8 8 9 11 11 11 11 9 9 10 11 8 5 5 5 5 4 4 3 2 1 2
8 9 9 9 8 8 7 7 6 5 2 1 1 2 4 5 6 7 8 8 8 8 6 8 9 11 10 9 9 9 9 8 7 7 5 5 5 5 4 3 3 3 1 1
9 10 10 10 8 6 6 3 1 1 2 1 1 2 3 4 5 6 7 8 9 7 7 9 10 10 10 9 10 8 9 9 7 6 5 5 4 4 3 3 3 2 2 1
11 11 11 11 9 7 5 3 2 0 2 2 3 4 4 4 5 5 6 7 4 4 6 8 9 8 9 10 12 9 9 8 7 6 5 5 4 4 4 4 3 3 2 1
13 13 13 11 9 7 5 4 3 3 3 4 5 6 6 5 5 5 5 6 3 4 6 7 4 6 8 11 13 8 7 6 6 6 5 5 5 4 4 4 3 2 2 1
13 13 13 12 11 9 7 4 5 6 6 6 7 7 6 6 6 6 5 3 1 3 4 5 5 6 10 13 8 7 7 7 5 4 5 5 5 5 4 4 3 3 2 1
11 12 13 13 12 12 11 9 9 9 9 9 8 8 8 6 5 5 5 0 2 2 4 3 4 7 13 9 6 6 7 7 6 5 4 4 4 4 4 4 3 3 3 2
13 13 13 13 13 13 13 12 11 9 9 9 9 9 8 7 6 6 3 5 4 1 3 2 1 6 10 5 5 6 6 6 7 7 6 5 5 4 4 4 4 3 3 3
14 14 15 14 14 12 12 11 10 10 11 10 11 10 8 7 6 3 1 3 6 3 3 3 5 5 6 4 4 5 6 6 7 8 6 6 6 6 6 5 4 4 3 3
12 12 12 11 11 11 12 11 10 9 9 8 8 7 7 6 6 5 4 4 4 3 3 1 1 3 3 4 4 5 5 6 7 6 7 6 6 6 6 7 7 5 4 4
13 11 9 10 10 9 9 8 8 8 7 6 5 5 5 4 4 4 4 2 2 1 1 2 3 3 3 4 4 4 5 5 6 7 7 7 6 6 6 7 6 6 6 6
Wind_Direction
323 330 326 324 327 341 344 338 327 339 339 22 21 6 0 354 351 345 347 348 346 341 338 335 331 328 325 323 320 316 312 308 307 305 306 304 300 298 294 291 289 287 284 279
311 313 301 297 293 291 310 315 322 327 344 23 7 358 349 344 340 343 349 345 340 338 336 332 330 328 328 322 319 316 314 312 312 311 307 302 299 295 292 290 287 283 278 275
306 304 297 314 325 341 337 338 335 330 359 11 352 347 342 345 4 360 346 341 340 338 331 330 330 331 325 322 319 318 315 314 314 312 308 306 305 302 298 295 290 282 276 271
296 301 300 309 51 34 358 334 326 341 11 1 350 346 10 49 23 352 345 343 339 332 329 329 332 329 328 324 322 321 320 318 316 313 310 308 303 299 298 294 288 281 276 270
296 299 305 154 161 76 360 333 10 11 1 350 349 327 74 44 11 358 352 342 333 329 328 329 332 333 332 323 322 321 321 320 317 314 310 306 303 301 299 294 288 282 276 269
284 298 304 333 107 75 320 68 33 8 359 348 341 330 346 2 358 358 347 337 332 330 330 333 336 334 327 322 323 323 322 319 315 311 307 303 300 298 296 292 287 286 279 269
268 280 306 89 98 294 316 44 10 359 351 342 353 328 326 339 352 350 341 335 334 334 334 334 333 332 326 324 325 325 321 314 311 309 304 298 299 300 298 295 291 286 281 272
279 285 358 74 328 2 34 20 354 345 343 344 334 327 334 343 347 344 339 337 337 334 333 333 338 336 328 326 327 323 319 314 311 309 306 307 308 305 303 300 297 294 288 281
336 329 177 266 331 25 44 345 339 339 338 336 328 330 337 342 344 341 340 337 334 333 330 335 340 338 329 328 327 322 319 315 312 310 308 306 306 308 309 308 305 304 299 294
295 296 303 295 283 245 226 311 328 329 327 326 326 330 337 341 341 341 338 334 335 333 332 334 337 337 334 329 326 323 319 316 314 313 310 311 311 311 311 318 322 322 323 321
275 279 276 270 267 249 210 229 294 311 315 322 326 329 336 337 341 339 332 334 334 333 331 333 335 335 338 333 328 324 320 318 318 314 312 316 318 322 324 347 339 319 327 331
306 334 309 304 267 198 219 249 258 280 301 317 326 329 334 337 339 335 333 334 334 333 331 332 334 337 338 335 330 324 320 320 318 315 316 319 320 323 344 329 326 322 324 322
291 295 302 316 278 217 234 250 249 243 262 286 310 326 332 335 338 338 334 335 334 332 331 331 334 337 339 336 329 322 318 315 314 313 316 321 322 324 321 280 203 243 325 340
301 292 286 281 277 253 238 247 258 258 252 262 297 328 333 337 339 336 334 333 333 332 330 335 337 338 341 335 326 320 317 313 313 313 316 318 319 322 326 328 311 194 175 239
303 280 273 269 258 253 233 237 251 259 262 260 295 336 337 337 334 332 334 336 335 329 333 337 336 338 339 330 323 319 317 317 320 316 313 316 317 327 335 339 338 343 143 153
304 293 282 274 263 260 252 243 249 262 275 285 319 337 338 332 331 331 337 338 336 332 332 334 337 339 334 326 323 318 317 314 310 311 314 320 327 336 340 337 339 343 351 108
304 296 291 285 277 264 256 252 247 254 269 290 335 336 328 325 327 332 337 336 332 323 329 341 344 339 328 325 326 322 322 319 315 313 320 329 336 336 337 338 337 336 5 52
316 311 305 299 291 282 269 251 230 225 224 265 312 316 316 322 326 332 329 330 323 318 348 352 350 328 322 330 331 320 316 314 318 325 331 339 334 326 334 338 342 348 342 162
342 337 331 324 318 309 305 299 266 164 140 162 263 287 298 305 318 320 322 321 313 325 357 349 336 319 330 340 338 317 315 320 323 326 333 328 322 338 339 337 343 341 344 358
1 356 349 344 342 343 336 334 335 221 204 219 241 258 272 286 299 303 311 304 326 6 342 334 323 329 336 340 335 315 316 324 330 336 346 347 352 349 341 347 0 347 337 333
5 1 358 351 345 337 324 312 292 265 237 228 236 248 260 272 283 289 292 299 27 45 331 306 310 351 343 331 309 308 322 331 339 343 346 346 347 350 352 349 353 337 326 320
358 353 350 346 339 329 314 289 263 256 244 231 235 244 252 259 267 272 266 268 77 72 318 320 10 3 334 317 307 325 330 337 341 342 341 339 342 346 352 353 351 349 348 353
341 337 333 328 322 314 305 288 268 255 247 240 239 240 245 252 267 277 280 224 93 58 307 354 15 332 321 311 320 335 339 343 342 341 335 332 339 343 349 352 354 356 4 18
322 317 313 310 304 297 290 283 275 262 251 245 239 232 231 238 238 236 232 136 140 195 309 98 270 312 304 303 332 342 342 345 346 347 350 346 343 348 355 354 358 11 29 34
309 306 301 296 291 287 284 279 272 260 253 247 241 230 224 226 235 243 245 147 153 205 285 175 201 275 299 335 351 349 344 350 344 338 349 350 349 360 8 7 14 22 36 54
298 293 292 287 287 285 285 284 280 274 265 254 240 229 225 215 205 202 199 214 194 201 264 290 275 261 320 347 360 355 350 343 341 346 350 351 356 10 11 5 16 24 24 36
294 293 290 290 298 304 308 307 304 301 293 282 265 245 225 207 193 182 187 208 223 233 301 342 344 343 350 356 6 6 2 359 351 347 349 354 359 8 6 4 12 21 25 31